Wind_Speed
18 12 12 14 17 22 25 27 27 25 25 26 22 19 20 19 19 22 23 25 25 20 22 25 27 25 22 24 25 22 23 21 21 24 22 21 21 21 21 21 21 21 21 20 21 24 22 18 17 18 19 20 21 20 20 21 20 21 23 24 24 22 21 21 19 17 16 14 13 13 12 12 13 12 12 12 12 10 10 10 8 6 6 6 5 3
18 13 14 20 23 26 27 28 27 25 26 24 19 18 20 19 19 23 24 23 24 22 20 23 24 24 23 23 26 27 24 22 24 24 22 22 20 20 21 22 22 20 19 20 21 24 22 18 18 19 20 20 22 22 21 22 22 22 22 24 24 22 22 20 19 19 15 12 13 13 13 13 13 12 12 13 13 11 10 10 9 7 7 6 5 5
15 13 19 24 24 25 25 25 25 25 26 21 17 17 16 16 18 21 25 24 22 20 19 22 22 21 23 22 23 25 23 23 28 28 26 25 23 22 22 21 21 20 19 22 23 23 22 20 19 20 21 22 22 22 22 23 22 21 22 23 22 21 21 19 21 20 14 12 13 13 13 13 13 14 15 16 15 12 11 10 10 9 8 7 7 7
13 15 21 24 24 25 23 23 25 23 21 18 17 15 14 18 19 16 20 25 24 19 17 20 19 16 19 21 21 25 28 26 28 30 29 28 26 24 23 23 22 22 22 23 24 24 23 20 19 21 22 22 23 22 23 23 22 23 23 23 21 21 21 20 21 18 14 14 14 15 16 15 15 16 16 15 13 12 11 11 11 10 9 9 8 8
16 18 23 24 23 24 23 23 24 20 15 19 22 17 13 18 20 16 18 25 24 18 16 18 16 13 16 20 19 21 27 26 26 28 29 29 27 24 24 26 23 23 24 25 26 26 24 21 20 21 22 22 24 25 24 22 22 24 24 23 22 22 21 21 21 17 17 18 17 18 18 16 15 14 14 14 12 12 12 11 11 10 10 10 8 6
18 22 23 23 23 25 24 21 23 20 13 17 22 19 18 20 21 21 21 22 17 12 16 19 14 11 15 21 19 16 20 23 22 23 26 28 27 25 27 28 24 23 25 26 26 25 25 23 22 21 22 23 25 25 23 21 22 23 23 24 24 23 23 22 20 18 19 19 17 18 17 16 14 13 14 15 14 13 12 12 11 10 11 10 8 6
15 23 23 22 24 27 24 20 23 22 13 13 18 19 23 23 20 22 22 18 12 11 17 20 15 10 13 19 18 15 18 20 19 19 23 27 27 28 29 27 24 24 26 26 26 25 25 25 23 22 24 25 25 24 21 21 23 23 24 26 25 25 24 22 20 19 20 19 16 16 15 14 12 13 15 16 15 14 12 12 11 10 11 9 6 6
15 23 24 23 25 24 21 18 21 24 16 12 15 20 24 21 20 24 22 16 11 11 15 19 17 11 12 15 17 20 22 20 20 21 22 25 28 29 28 27 25 25 26 27 27 27 26 26 24 23 25 25 24 22 21 24 26 25 25 24 24 26 24 21 19 19 21 19 16 14 13 13 12 12 15 16 16 14 12 12 12 12 12 8 5 6
18 23 22 22 22 18 18 19 21 24 19 13 16 20 21 17 18 21 19 14 13 12 12 17 18 12 12 14 16 22 24 21 23 24 22 24 28 28 27 27 26 26 26 27 28 28 27 26 24 23 24 24 24 22 22 25 26 25 24 22 24 26 23 21 19 18 20 18 16 15 15 15 13 12 15 16 16 14 13 12 12 11 11 8 6 6
17 20 21 20 17 17 21 22 22 23 18 16 18 18 17 16 16 15 14 13 13 13 14 17 18 12 11 14 15 17 20 21 22 21 20 23 28 29 28 28 26 25 26 26 27 28 27 26 25 24 23 25 26 25 24 25 24 25 25 24 26 26 23 22 21 19 19 17 17 18 18 17 15 15 17 15 15 14 12 12 12 11 10 10 8 6
16 20 20 18 16 18 21 22 21 21 18 18 17 15 15 15 13 10 11 11 11 12 16 19 21 16 11 11 14 15 16 18 18 16 18 23 28 29 29 28 26 25 26 27 26 27 26 24 24 24 24 26 27 26 26 25 25 25 25 27 28 26 22 22 23 21 19 18 19 20 20 19 18 17 17 16 14 14 13 12 12 10 10 11 9 6
16 17 15 15 19 20 18 19 20 21 21 20 15 12 12 11 10 9 9 11 11 12 16 20 24 21 13 10 13 17 20 18 16 17 20 22 26 29 29 27 27 27 27 28 27 27 27 25 25 24 24 26 27 27 26 24 26 26 25 28 30 27 24 22 22 23 21 20 20 21 20 20 18 17 18 17 15 14 13 12 11 9 9 9 8 6
11 12 12 15 21 23 19 17 19 18 18 18 14 13 13 11 10 11 10 10 12 13 14 19 23 18 12 12 14 17 21 19 16 17 20 23 26 29 30 28 27 27 27 28 28 28 29 28 27 25 25 28 28 27 26 25 27 26 25 28 30 30 27 22 22 24 23 22 20 21 21 20 19 18 19 17 15 14 12 11 10 8 8 8 7 6
7 9 15 17 17 22 21 16 15 15 16 17 16 15 14 12 11 12 11 11 12 13 14 18 18 13 11 15 18 18 17 18 20 21 23 26 29 30 30 29 28 28 28 28 28 29 30 29 27 24 25 29 27 26 26 25 26 26 26 29 31 31 29 23 22 24 24 23 21 21 22 22 21 19 19 17 15 14 12 9 9 8 8 7 6 6
10 8 14 19 13 16 21 17 16 16 16 17 17 15 15 12 10 10 11 11 12 11 14 15 12 12 13 9 12 19 18 14 19 23 24 26 30 31 30 30 29 27 28 27 27 28 29 30 27 24 25 27 28 28 26 24 26 27 28 32 33 32 29 24 24 25 25 24 22 21 22 23 21 19 19 16 14 14 11 9 9 9 8 7 7 7
12 9 13 20 16 17 20 18 18 18 14 15 16 14 14 12 10 8 9 9 9 9 11 10 8 10 10 1 2 12 17 13 13 18 21 23 27 29 28 29 28 27 27 27 27 28 29 30 27 25 26 26 27 29 27 26 28 29 30 33 33 30 28 27 26 26 26 24 23 22 22 22 22 22 20 18 15 13 12 11 10 9 8 7 7 7
11 8 14 21 19 20 20 17 18 17 13 12 15 15 14 15 12 9 8 4 5 9 9 9 9 9 7 5 4 9 15 15 14 15 18 20 24 27 27 28 27 27 27 28 28 28 29 31 28 25 27 27 27 28 28 28 29 31 32 32 32 30 29 29 28 26 26 25 23 22 21 22 24 23 20 18 17 14 11 12 12 10 8 7 8 8
9 6 15 22 18 20 22 20 18 20 16 12 13 15 15 15 12 8 8 6 7 10 7 10 14 12 9 8 9 11 14 13 14 15 17 19 23 24 24 27 27 27 28 28 28 28 29 32 29 26 27 28 27 27 28 27 27 32 36 32 31 32 30 29 29 28 28 27 24 23 23 23 24 22 19 18 17 14 13 13 13 11 8 8 9 8
9 5 11 20 17 18 21 19 15 19 21 15 13 14 12 12 11 9 9 8 10 10 8 12 14 12 11 8 9 14 15 13 14 16 17 18 20 20 22 25 26 27 27 27 27 28 29 31 31 28 27 28 27 26 27 27 25 29 36 33 30 30 30 29 30 29 28 26 24 23 24 23 23 21 20 18 16 15 15 14 12 9 7 9 9 9
9 4 7 16 18 17 16 14 11 14 17 16 14 14 12 10 10 10 8 8 9 9 8 12 12 9 10 10 11 15 16 16 16 15 15 16 19 21 22 24 26 26 26 26 27 28 28 30 32 30 28 27 27 26 26 26 25 27 33 34 30 29 29 29 29 28 26 24 23 24 24 23 22 21 19 18 16 17 16 14 10 8 8 10 9 11
7 5 4 12 16 14 12 12 12 14 14 14 13 14 13 10 10 10 9 9 9 8 7 8 9 8 7 9 12 14 15 15 16 15 14 15 20 23 23 23 25 26 25 26 27 27 28 29 30 30 29 27 26 26 26 25 26 27 31 34 31 29 28 27 28 28 25 24 24 26 28 24 21 20 20 19 18 18 16 13 9 8 9 10 11 15
6 5 5 9 11 11 12 14 15 16 16 14 12 14 15 13 12 11 11 11 9 8 8 7 7 6 5 8 10 10 12 12 15 15 13 15 21 24 23 23 23 24 26 26 27 27 28 29 30 30 30 28 25 27 27 25 27 29 30 32 32 30 28 27 28 26 24 24 24 27 29 25 20 20 21 21 20 18 16 11 8 9 10 11 14 17
2 2 6 10 10 12 16 17 17 18 19 15 12 14 14 12 12 10 9 10 9 10 10 9 8 4 3 5 7 8 9 11 14 15 14 16 20 22 23 23 23 24 25 25 26 26 27 28 30 30 31 30 27 28 29 27 29 32 30 29 32 32 29 28 27 24 23 24 24 26 26 23 22 23 23 22 20 19 17 11 8 10 11 13 16 19
2 2 7 9 10 12 15 16 16 17 17 14 11 13 13 13 14 12 10 9 9 11 10 8 9 5 5 3 5 7 9 11 13 14 13 14 17 20 23 23 22 23 23 23 24 25 25 27 29 30 30 31 28 29 31 29 30 32 29 29 32 33 31 28 25 23 24 24 24 25 24 23 25 25 23 22 20 18 17 11 8 11 14 16 19 20
4 5 7 7 9 11 12 12 13 14 13 12 12 14 14 16 18 14 10 10 9 12 12 8 7 7 6 4 5 7 10 11 10 10 7 5 6 12 17 19 20 21 22 23 24 25 26 27 30 30 31 31 30 30 33 32 30 31 30 30 32 32 31 27 23 23 26 24 24 27 27 26 27 26 23 23 20 18 17 11 9 13 17 19 21 21
5 4 5 7 9 11 10 10 11 13 12 10 14 18 17 17 19 14 10 10 9 12 13 10 7 7 7 6 8 9 10 10 9 9 7 6 4 5 10 15 17 20 22 24 25 26 26 28 30 30 32 33 30 31 34 31 27 30 31 30 30 30 29 27 23 24 26 25 26 29 30 29 29 26 24 23 20 19 16 11 12 16 18 20 21 21
5 4 6 9 7 9 11 11 12 14 13 13 17 21 20 18 19 16 11 10 9 9 10 10 10 9 9 9 9 10 9 8 9 9 9 8 7 8 11 15 17 20 23 25 25 26 27 28 29 30 32 32 30 32 34 29 27 30 31 30 31 29 29 29 26 25 26 27 29 32 31 31 30 26 24 23 21 19 15 11 13 17 19 20 21 22
4 5 8 11 10 7 9 12 15 16 17 17 19 21 20 20 20 17 13 12 11 9 9 11 13 11 8 10 11 11 10 10 9 8 8 7 7 8 12 17 20 22 24 25 25 26 27 27 29 30 29 28 30 33 30 26 27 29 29 31 33 30 30 32 30 25 25 27 31 32 32 31 29 26 25 22 20 20 16 11 13 17 20 21 22 22
5 6 9 10 10 10 11 12 16 17 17 18 19 20 21 21 21 18 15 15 14 10 8 10 14 14 10 7 9 8 6 7 8 6 4 3 5 8 11 17 21 22 24 25 26 26 27 28 30 31 29 29 34 33 29 27 28 27 27 32 34 30 28 32 29 23 23 27 30 31 31 31 28 26 25 22 20 21 18 13 14 18 20 22 22 22
5 5 7 10 10 10 11 8 11 13 16 18 20 20 20 20 19 17 16 16 16 14 10 8 11 13 11 8 7 10 6 3 3 2 2 3 4 8 11 16 20 23 24 26 26 26 27 28 31 31 29 30 36 36 32 30 28 27 29 32 31 27 25 27 26 23 24 27 28 29 31 31 28 26 25 22 21 23 19 13 15 18 21 23 23 23
5 4 6 8 8 9 10 8 8 12 15 17 19 20 20 20 18 16 15 14 14 14 12 11 11 9 8 9 7 5 4 4 5 5 6 5 5 7 11 14 19 21 23 24 25 25 27 29 31 32 29 29 36 38 35 32 28 27 28 29 28 25 23 24 25 26 29 28 27 30 31 28 26 25 25 23 23 24 19 14 16 19 21 23 23 23
6 4 5 6 6 8 9 9 9 10 12 14 17 20 21 20 17 15 14 13 13 13 14 12 10 7 6 6 8 7 6 7 6 7 8 8 7 7 11 14 18 20 21 22 23 25 28 30 32 31 30 30 33 35 34 33 29 26 26 27 27 24 22 25 27 31 32 30 29 31 29 25 25 25 25 24 26 26 19 16 17 20 22 23 24 24
7 5 4 6 6 5 7 9 8 8 10 11 13 16 18 17 16 15 14 15 15 13 11 10 9 8 7 7 7 7 7 7 6 7 8 7 7 8 10 14 17 19 20 21 24 26 28 31 32 30 30 31 32 31 30 31 29 25 25 27 24 20 22 26 30 33 33 31 30 29 26 26 27 26 25 26 27 27 22 18 19 22 23 24 26 25
7 6 4 4 5 5 6 7 7 9 10 8 10 14 16 15 15 15 14 14 15 13 10 9 9 10 10 10 8 7 8 8 5 4 4 5 7 8 10 14 16 19 21 23 25 27 28 31 31 30 30 31 33 31 28 27 26 24 24 24 21 19 22 25 28 33 32 28 27 26 25 27 28 25 26 27 27 28 23 19 20 23 24 26 27 27
6 7 4 4 4 5 5 6 8 9 7 4 5 12 15 15 15 14 13 14 15 16 15 13 13 13 11 10 10 11 11 8 3 4 6 7 10 11 12 14 17 19 21 24 25 26 28 31 32 31 31 31 31 30 29 28 26 23 21 23 23 22 23 24 27 30 28 24 23 24 27 30 29 26 27 27 26 27 24 20 20 24 27 28 28 27
6 5 4 4 4 5 5 6 7 4 3 3 3 7 12 13 13 13 12 14 15 15 15 15 15 15 12 12 14 15 11 5 3 8 12 11 12 14 13 13 15 18 20 22 24 26 28 30 31 32 33 32 31 29 29 30 28 23 21 23 24 25 26 25 24 24 23 22 24 26 29 31 30 28 28 27 26 27 27 24 24 26 29 29 27 25
7 4 3 3 3 4 5 6 4 2 4 6 3 3 8 10 11 11 10 11 14 14 14 15 16 15 13 14 18 15 7 3 6 11 14 13 12 14 13 12 13 17 19 20 22 24 26 28 30 30 30 31 31 30 29 29 26 23 23 23 23 26 30 30 28 25 24 26 28 30 31 31 30 29 29 28 27 27 28 27 26 26 29 29 27 26
4 3 2 2 4 5 6 5 4 3 4 5 2 2 2 3 5 8 8 8 11 14 15 15 15 15 13 14 16 10 3 5 8 6 6 9 11 11 12 11 12 15 18 20 22 24 25 27 30 31 29 29 30 29 29 28 24 22 23 24 23 26 29 31 30 29 31 33 32 32 32 32 31 31 30 29 27 27 27 27 26 27 28 29 29 27
3 1 2 3 5 6 6 4 3 2 1 1 2 1 2 2 2 5 7 7 8 12 17 17 14 13 12 13 13 8 4 7 7 1 3 5 10 11 12 13 13 14 18 20 21 24 25 25 28 31 31 30 30 29 27 25 23 22 23 23 25 27 29 29 30 31 34 35 33 33 33 32 31 31 30 29 28 28 28 29 28 28 28 28 29 28
5 1 2 4 6 7 6 2 2 2 2 4 4 2 2 3 5 7 8 4 1 4 12 16 14 13 15 15 11 7 6 7 2 3 2 3 8 11 12 14 15 16 17 19 21 23 24 23 25 30 32 30 30 29 26 24 23 23 23 24 28 32 34 34 34 34 34 32 31 33 35 33 32 32 31 30 29 28 28 29 29 28 28 29 29 28
5 1 3 6 6 7 6 1 0 1 2 4 6 2 3 5 7 7 4 1 6 8 6 7 9 10 14 14 9 7 8 5 3 4 1 4 8 11 13 15 17 17 18 20 21 23 23 22 24 28 30 29 28 28 27 25 23 24 24 26 31 36 36 35 34 31 29 31 33 34 34 33 30 29 29 28 27 26 27 28 28 27 28 28 28 27
4 2 4 8 6 5 3 0 1 1 2 5 8 3 4 4 5 3 1 5 7 8 7 6 3 2 5 8 8 8 6 4 4 3 2 6 10 12 15 18 20 20 20 20 22 23 24 24 24 25 27 27 26 26 27 27 26 25 25 28 33 37 36 34 33 28 25 29 35 34 32 31 28 27 27 27 26 26 26 27 27 26 26 28 28 27
5 4 5 6 4 4 3 2 0 2 2 7 8 4 2 1 1 2 2 4 7 9 7 5 2 1 3 6 8 8 5 3 2 2 3 7 12 13 16 19 21 22 21 21 22 22 22 23 23 25 26 25 25 26 27 27 27 26 26 28 31 33 34 35 35 33 30 31 32 31 30 29 29 28 28 26 25 25 25 25 26 26 26 28 30 29
7 6 4 3 3 3 2 1 0 2 4 7 6 2 3 4 2 2 2 3 7 9 7 4 4 2 2 5 6 7 5 3 1 3 4 8 12 13 16 18 20 21 22 22 22 21 21 21 22 24 25 24 24 26 25 26 26 25 25 26 26 28 31 32 30 31 34 34 32 30 29 29 29 28 27 24 24 24 24 25 25 25 26 28 30 28
4 2 0 1 3 4 3 2 3 4 5 5 5 1 4 4 2 2 4 6 8 9 6 4 5 5 3 3 4 6 5 3 3 4 4 7 11 14 17 18 20 22 23 24 23 21 20 21 22 23 24 23 24 24 24 24 26 26 25 24 24 26 29 27 22 22 30 34 32 30 29 28 27 28 26 24 24 24 25 25 25 25 27 29 29 27
4 1 1 2 3 4 6 9 9 7 5 3 2 2 2 4 3 4 6 7 9 10 8 8 8 8 6 4 3 4 5 4 4 4 4 6 11 15 17 17 19 21 23 24 24 22 20 20 21 22 23 23 24 24 23 23 25 27 26 25 25 26 27 25 20 20 28 33 31 28 28 27 27 28 26 24 24 25 26 26 25 26 28 29 28 25
7 4 2 4 3 2 4 6 6 6 4 0 2 1 2 5 5 5 6 8 11 11 11 11 11 10 9 8 5 4 4 4 4 3 4 6 10 14 16 17 17 19 21 24 25 24 22 20 21 22 23 23 23 23 23 23 24 26 28 27 28 30 29 26 21 21 28 33 31 28 28 28 28 27 26 25 26 26 26 26 25 27 29 30 29 26
3 2 3 7 6 5 5 5 3 0 4 4 1 2 4 6 6 6 6 8 10 11 12 14 14 13 12 11 9 7 7 5 4 5 5 5 9 13 14 15 16 18 19 21 23 24 23 21 21 23 24 24 22 21 22 22 22 24 27 27 29 30 27 23 20 21 25 30 30 29 29 29 28 27 26 26 27 27 28 27 27 28 30 31 32 28
1 0 5 6 4 7 8 4 0 3 4 1 0 3 5 5 4 4 5 8 9 9 9 12 14 14 14 13 12 11 10 8 7 7 6 6 8 11 13 13 15 17 19 20 22 23 22 21 22 23 23 24 23 21 22 21 21 24 25 25 28 28 23 20 20 20 21 25 28 29 28 28 29 28 28 29 30 30 29 28 27 27 27 28 29 27
4 3 6 6 4 3 2 4 6 2 2 2 1 5 6 3 3 5 6 9 9 8 7 9 12 13 14 14 14 13 12 11 10 8 7 7 7 9 11 12 14 16 18 19 20 21 19 18 20 21 23 23 22 22 22 21 22 24 23 23 29 30 24 20 19 18 19 24 28 27 27 28 28 29 29 29 29 30 29 27 26 26 23 23 26 27
6 1 2 6 6 4 3 4 2 3 3 2 1 3 5 4 4 7 9 9 9 8 7 8 10 11 12 13 13 13 12 12 11 10 9 8 6 6 8 10 12 14 16 16 18 20 18 17 18 21 23 23 22 22 21 21 23 25 22 22 29 32 25 20 19 19 21 25 27 25 24 25 26 28 29 28 28 28 29 28 28 27 25 25 27 30
Wind_Direction
203 209 210 212 210 208 210 213 216 218 218 218 217 219 221 222 226 223 221 222 217 217 215 215 234 232 214 227 230 207 195 200 211 221 227 228 227 223 215 211 210 209 201 190 179 178 182 184 182 185 186 184 181 179 182 185 190 193 189 189 191 187 192 198 194 190 190 189 186 183 182 182 185 188 195 198 196 201 208 207 206 198 182 185 198 190
203 217 213 212 215 213 213 216 218 221 226 225 221 222 223 224 226 223 221 218 218 229 223 213 230 234 220 224 228 220 207 200 212 220 224 228 228 226 223 214 211 210 198 185 176 175 180 184 182 184 186 183 181 180 183 187 194 196 190 190 190 188 192 194 194 194 194 194 188 183 184 184 186 191 199 205 201 201 207 208 206 197 183 184 194 198
207 219 217 213 217 218 217 217 219 222 225 227 224 224 223 221 223 223 220 214 215 231 227 218 227 230 226 226 223 225 223 208 207 216 225 229 228 227 230 223 212 207 197 185 177 173 178 182 183 186 185 183 182 180 182 188 193 191 188 189 189 189 191 196 204 200 190 192 189 185 186 184 189 192 198 205 204 204 207 207 208 207 200 197 203 208
212 214 217 216 215 218 219 215 216 220 223 225 226 225 225 221 217 218 217 214 217 225 220 219 227 226 223 228 224 223 230 220 204 214 226 227 228 228 230 229 216 204 195 184 178 176 178 180 182 184 182 184 183 181 182 185 187 185 187 189 187 189 192 198 205 195 180 188 187 185 188 188 194 196 198 202 203 207 212 211 209 215 216 216 218 220
223 215 214 218 216 215 219 216 214 217 218 222 226 225 225 222 217 215 214 214 218 218 212 218 229 227 217 223 225 219 228 225 204 209 222 221 223 227 228 228 219 206 196 186 181 181 181 182 184 183 180 180 180 183 184 183 184 186 188 187 185 191 196 199 203 191 180 185 184 186 189 192 199 199 198 201 205 212 216 208 202 212 220 221 224 220
226 220 212 215 216 212 216 217 213 213 213 219 223 223 225 227 221 218 214 209 211 208 206 213 226 229 218 224 227 215 222 224 203 203 217 216 213 217 224 223 213 206 201 191 186 184 184 185 186 183 180 179 181 186 188 184 184 185 185 186 187 193 196 199 202 193 186 188 189 193 192 192 199 196 194 202 208 210 210 202 195 209 223 219 214 208
223 222 215 210 210 210 214 219 212 208 213 216 211 215 225 226 220 215 207 196 199 210 204 207 223 234 226 227 224 217 223 218 203 206 214 213 208 208 216 216 204 202 201 193 187 184 183 184 185 185 184 182 185 190 190 186 183 183 187 189 192 199 200 201 200 194 192 194 197 200 197 195 200 198 198 202 204 203 206 203 196 209 221 215 208 208
219 222 216 207 208 207 209 217 207 203 214 216 198 207 221 221 217 213 206 196 198 213 207 203 215 234 236 228 215 216 224 214 206 212 211 207 206 205 208 206 200 200 198 191 188 185 183 184 184 186 186 185 188 190 189 188 183 184 192 191 193 202 205 200 195 193 195 196 195 195 196 197 195 200 207 202 197 200 203 204 202 206 210 207 204 211
217 221 212 205 210 209 206 211 206 204 213 213 196 201 212 217 222 216 210 209 202 208 216 203 205 225 239 229 217 218 220 213 211 212 208 204 202 201 202 201 198 198 195 191 189 186 183 185 184 186 186 184 189 189 188 190 184 187 195 189 192 202 204 199 192 192 197 194 192 190 192 195 186 195 211 202 194 199 198 197 199 198 199 199 201 210
215 221 213 206 212 210 204 202 207 210 208 208 202 195 199 213 223 215 209 213 206 213 228 212 201 214 236 227 222 222 215 211 215 212 207 205 200 198 199 199 197 195 193 192 189 184 183 183 183 186 184 181 187 188 188 190 188 194 195 186 195 204 203 200 193 192 196 191 190 190 192 196 190 199 209 198 191 198 194 188 189 189 195 198 200 206
219 220 215 212 214 211 203 198 206 210 204 210 209 192 195 207 213 212 211 212 209 218 227 219 209 212 232 228 218 225 221 210 211 211 206 203 200 197 196 196 195 193 193 191 186 182 179 180 181 184 181 180 185 185 185 189 189 194 191 183 194 202 197 197 195 194 193 189 189 190 194 200 197 203 204 190 186 192 188 183 183 185 194 197 198 199
226 221 211 210 214 209 201 201 207 205 203 213 209 188 194 199 199 210 212 211 219 222 218 219 221 218 224 230 217 222 225 212 204 208 204 199 199 196 193 195 193 193 194 190 185 180 175 176 179 181 179 180 184 183 183 188 188 191 190 183 190 198 194 192 194 193 193 192 190 190 198 203 201 207 206 193 188 188 184 182 181 184 192 193 193 191
225 231 216 208 212 209 201 199 203 199 201 210 202 190 195 187 188 203 202 205 220 226 218 215 222 221 221 233 232 228 224 209 200 211 207 195 197 198 193 193 192 192 194 188 184 180 175 175 178 180 180 181 184 183 182 187 187 190 193 184 184 195 195 187 187 191 194 194 191 192 197 201 201 205 203 194 188 186 182 179 178 182 189 187 183 184
207 233 220 206 207 212 208 198 193 190 197 204 197 196 199 184 182 193 193 202 213 221 222 212 212 221 226 230 229 231 233 209 196 211 212 195 196 201 197 193 190 191 192 187 181 179 175 174 177 179 179 180 183 182 181 185 185 188 191 181 180 191 193 185 185 191 193 191 191 193 193 197 199 194 189 186 182 180 177 180 180 177 182 182 178 182
201 222 215 203 198 204 208 205 192 185 191 202 199 199 204 193 186 188 187 201 206 206 212 206 204 217 223 228 217 221 234 218 195 206 211 199 196 200 199 195 191 190 191 187 181 179 175 173 176 177 177 180 184 183 181 182 182 182 181 176 178 186 188 185 187 192 193 191 191 191 190 195 192 181 179 181 179 176 174 183 186 176 177 180 177 184
209 216 199 196 197 197 203 204 191 185 190 199 199 202 206 198 188 188 195 207 207 204 205 201 213 221 211 196 176 215 225 209 189 203 207 200 196 194 196 196 193 190 190 187 184 180 174 172 174 177 179 181 182 183 183 182 181 180 176 175 178 181 183 185 188 190 191 191 191 189 190 193 184 175 177 177 176 176 174 183 187 176 175 175 181 188
207 212 186 189 197 195 200 201 189 189 194 191 197 204 204 200 194 187 199 208 197 208 203 190 212 223 207 195 181 216 225 199 183 204 206 199 195 191 193 195 192 190 190 188 185 178 172 171 174 178 181 180 181 184 187 185 181 178 177 178 181 182 182 184 186 189 190 191 191 188 189 188 179 174 177 178 177 176 180 191 191 186 188 185 189 189
201 204 181 187 191 185 198 208 196 198 205 192 194 204 204 206 206 196 199 193 188 206 202 187 205 214 212 210 185 200 223 199 182 201 204 198 196 191 190 191 189 190 191 189 184 176 171 172 174 179 181 182 184 187 189 187 181 178 178 180 182 183 183 183 186 191 191 190 191 187 185 183 175 174 180 181 178 179 192 202 202 207 210 192 184 178
206 202 177 188 189 176 194 212 199 199 213 207 194 203 208 208 204 198 200 196 192 204 203 193 203 212 215 207 173 186 210 204 194 203 202 196 193 188 186 187 187 188 189 188 184 176 173 172 174 178 182 186 188 188 188 188 185 180 179 179 182 183 184 184 187 192 190 188 189 186 184 181 173 174 182 180 176 184 197 207 211 213 199 179 175 171
201 192 177 192 191 174 184 208 196 189 207 210 200 201 209 214 206 198 199 198 197 203 206 200 201 212 218 208 185 185 197 206 205 202 200 195 188 187 188 186 186 187 187 187 185 179 175 174 174 177 181 185 186 185 185 188 187 183 179 179 182 187 189 184 185 190 189 185 186 184 182 180 174 176 182 179 179 189 200 211 212 192 174 173 172 171
201 191 194 189 184 176 182 201 198 186 192 202 200 196 198 206 207 205 206 205 204 205 206 207 207 207 206 208 204 189 185 201 207 199 198 197 190 189 190 188 188 187 186 185 184 180 176 175 174 176 179 181 182 184 185 187 188 184 180 179 182 189 192 184 183 190 189 183 183 183 182 180 175 178 182 181 186 195 202 207 196 176 174 173 171 174
205 189 206 185 176 182 187 192 197 195 194 199 200 195 195 199 201 206 208 204 209 214 202 203 219 214 186 196 208 189 176 195 206 199 198 200 196 190 186 188 189 186 183 181 180 179 175 174 174 174 178 179 180 184 186 187 188 184 181 180 180 187 192 185 183 187 185 179 179 182 182 179 176 180 183 187 192 199 203 200 180 174 173 168 171 176
185 182 204 187 180 187 184 187 199 200 198 206 214 203 196 197 202 207 203 196 207 218 205 200 213 211 114 159 180 170 170 185 193 194 200 203 200 193 187 189 190 185 181 179 177 175 173 172 173 173 178 181 181 185 187 187 188 187 182 179 180 187 194 190 182 180 179 176 178 180 179 177 180 182 187 194 197 199 204 202 183 175 171 169 173 174
122 206 203 182 176 186 183 185 202 205 196 202 217 212 200 196 202 212 209 197 208 217 208 203 203 172 91 120 170 171 182 189 185 186 196 201 199 197 195 191 184 180 182 179 174 172 171 170 171 173 177 181 183 186 188 188 188 187 183 180 181 187 195 192 180 177 179 177 177 178 176 179 184 185 191 198 197 196 201 201 182 170 170 175 176 176
178 202 199 183 169 177 181 180 196 208 202 198 207 214 214 204 201 212 219 208 211 217 216 218 203 165 124 148 179 182 193 199 183 165 162 160 176 193 190 178 172 177 184 182 173 170 171 170 172 176 178 181 183 185 187 187 187 188 186 182 181 186 192 190 179 178 181 178 176 178 180 184 187 187 194 198 194 195 202 198 173 165 172 179 180 180
204 211 202 197 174 170 181 181 186 196 199 204 205 208 215 211 203 206 215 212 208 209 216 224 206 159 132 157 180 180 190 190 166 153 155 147 144 179 179 170 175 182 184 182 174 170 172 173 175 180 182 183 184 184 186 185 184 189 188 183 182 185 187 187 181 178 180 181 183 183 183 187 189 189 195 196 192 198 203 188 166 168 175 181 182 183
216 230 223 229 213 182 181 185 190 195 199 205 203 202 207 212 211 209 208 215 212 203 211 224 214 178 148 160 176 172 172 165 151 155 165 166 172 193 192 185 188 188 182 179 175 172 174 176 178 181 183 183 184 185 185 181 181 189 189 184 185 185 183 183 182 179 180 184 188 187 184 187 189 189 193 194 194 199 195 175 169 175 178 180 184 185
237 229 219 241 252 226 199 191 188 194 204 208 204 202 204 210 216 216 210 214 216 211 209 210 216 213 184 166 166 166 167 157 151 156 154 156 175 195 195 187 189 190 183 178 178 176 176 178 178 180 181 182 184 185 183 179 181 187 188 186 187 186 182 183 182 183 185 185 188 188 186 186 187 188 191 194 198 199 189 172 173 177 179 182 186 186
255 238 210 227 243 240 233 207 183 187 203 208 207 207 205 206 212 215 216 216 214 219 217 199 204 219 225 192 152 140 149 141 131 133 130 154 185 191 193 187 186 190 185 179 180 179 178 179 178 179 180 182 185 184 180 179 180 182 184 187 188 186 183 183 181 180 184 185 189 189 186 185 186 187 192 196 202 202 193 177 173 175 180 186 187 186
248 249 218 221 223 229 239 215 179 190 204 206 208 210 208 208 210 213 220 223 218 221 232 234 219 212 222 226 160 114 100 115 131 164 230 242 204 188 193 191 189 190 187 183 182 181 180 179 178 180 181 185 189 187 181 180 180 181 183 185 187 184 183 183 180 180 184 185 187 186 184 185 184 187 195 199 203 204 196 179 174 177 184 189 188 187
220 246 238 231 222 224 230 217 197 205 208 206 207 208 208 211 212 211 216 222 221 220 228 250 253 220 204 233 228 159 154 206 231 250 251 253 235 200 197 198 196 194 190 187 184 181 180 177 177 181 182 182 185 184 181 180 178 178 180 182 185 185 183 183 183 186 187 185 184 185 185 185 186 191 199 200 204 206 195 176 177 182 185 188 188 188
211 255 255 233 224 224 224 224 225 222 218 215 212 208 206 207 209 208 209 211 214 218 221 230 244 232 205 230 250 247 234 228 235 248 246 244 242 221 206 205 203 198 193 189 184 181 182 179 178 181 182 180 180 182 183 183 179 176 177 180 185 186 185 187 189 191 190 186 186 187 186 188 193 198 201 202 206 207 194 176 180 183 184 188 190 189
211 234 250 230 226 228 223 225 235 232 226 225 219 214 211 210 209 208 208 210 212 218 225 223 225 236 245 252 254 252 250 247 245 245 242 239 240 232 216 211 208 201 193 190 187 185 186 184 181 181 183 184 184 184 185 183 179 177 177 179 183 184 184 188 192 193 191 189 189 188 185 189 197 200 201 203 209 209 195 178 183 185 183 190 193 190
217 224 249 254 238 239 237 232 230 222 220 220 211 210 214 214 212 209 208 209 210 215 228 235 233 236 244 253 259 263 262 257 246 244 262 270 264 249 225 213 209 200 193 191 189 188 188 187 185 186 187 188 188 186 182 180 180 180 180 182 183 182 180 183 187 189 189 187 187 187 186 191 197 201 203 206 210 211 198 179 182 188 188 193 197 193
215 221 239 260 248 248 252 243 230 221 220 225 206 203 208 214 214 213 212 209 209 214 222 229 235 235 237 246 253 255 257 257 243 248 262 261 252 244 229 215 206 197 193 190 188 188 188 187 188 189 186 185 186 184 181 181 181 179 180 182 181 177 176 178 181 184 184 180 182 189 192 194 198 202 206 208 210 212 205 190 189 195 196 199 199 195
209 221 237 254 253 256 256 238 227 212 173 172 202 202 201 206 210 211 213 213 212 215 220 225 234 238 238 244 248 249 253 263 256 254 256 251 238 232 229 219 204 194 192 190 187 187 187 188 191 190 185 182 182 179 179 180 178 175 176 178 179 180 181 181 178 178 179 179 186 196 199 199 201 205 209 211 211 212 211 206 204 203 201 200 197 194
202 224 253 269 269 271 266 237 213 151 155 175 187 204 198 203 207 206 212 218 214 215 220 224 232 236 234 238 242 244 251 274 263 254 248 240 232 228 226 221 204 193 189 187 187 187 186 188 189 185 183 184 184 180 181 183 181 177 176 177 180 184 187 188 186 183 185 189 194 200 202 202 205 209 211 212 212 213 212 210 208 206 204 202 198 195
205 238 259 281 292 292 286 257 217 192 185 175 120 112 204 243 227 208 215 225 214 213 219 223 228 230 227 233 236 231 225 253 253 246 220 215 221 224 217 208 199 191 186 184 184 183 182 185 186 182 179 180 181 181 183 184 182 179 179 180 181 182 184 188 190 191 196 199 201 202 202 202 206 210 212 213 214 215 213 210 208 207 207 206 203 199
221 245 268 280 287 284 287 292 269 231 189 72 54 121 206 264 223 205 216 219 208 211 216 221 229 229 221 225 225 203 192 241 241 152 105 197 214 214 200 189 189 187 183 184 182 177 178 183 186 185 182 180 180 182 182 180 180 181 181 182 183 184 183 183 186 192 200 204 204 203 203 204 207 210 212 215 215 214 213 209 206 206 206 206 205 203
219 206 277 266 271 278 279 297 306 291 24 10 329 282 205 180 185 202 207 192 4 261 228 221 224 222 219 223 219 193 208 245 247 77 52 234 210 200 188 180 179 178 178 183 182 176 177 182 183 183 184 184 184 182 180 180 182 184 185 188 191 191 188 187 191 199 204 207 207 205 206 208 210 211 214 216 215 215 214 211 209 208 207 205 206 206
209 185 273 260 267 287 285 255 274 290 33 350 311 294 143 172 187 193 200 348 354 336 300 251 232 221 220 221 214 202 212 216 107 96 171 217 193 183 178 171 168 172 178 182 181 177 176 178 179 180 182 183 182 181 182 185 186 186 190 195 197 195 193 194 198 202 204 208 210 209 210 213 214 215 219 220 219 217 216 215 215 215 212 209 208 210
191 159 259 257 256 273 274 48 343 260 80 356 332 4 123 185 194 157 347 333 342 343 323 294 277 246 225 218 213 215 209 164 125 110 145 185 178 170 167 165 166 173 177 175 174 175 174 175 176 178 180 180 179 181 186 189 188 187 191 196 198 196 195 198 199 194 195 207 212 211 213 214 214 217 221 221 219 218 216 216 217 219 215 210 209 210
176 179 249 261 259 256 230 132 272 240 61 8 338 344 68 310 332 43 348 341 7 359 325 296 337 35 213 209 212 219 213 160 131 60 87 161 168 161 161 163 164 168 166 163 166 171 174 177 177 177 179 180 180 183 187 189 188 187 192 196 196 197 200 204 204 201 204 213 215 213 214 214 214 217 221 221 219 218 216 214 216 218 214 208 210 212
192 204 251 286 294 288 283 89 198 277 343 352 330 331 58 45 37 37 24 38 34 14 346 335 16 32 199 201 202 205 206 199 126 53 93 156 161 158 160 161 162 161 157 157 163 168 173 178 179 177 179 181 182 184 188 189 188 189 192 193 190 194 201 204 204 206 214 220 220 217 216 216 217 219 220 220 218 215 213 213 214 214 209 208 212 214
215 222 65 248 268 302 312 280 264 267 284 311 309 272 106 100 109 78 64 62 55 43 26 14 34 57 90 147 171 175 179 174 124 87 113 158 163 163 165 164 163 160 155 156 162 167 172 178 179 178 180 182 182 184 186 188 189 190 189 187 187 193 197 193 188 197 212 218 220 221 219 217 218 219 217 216 215 212 209 210 210 208 206 208 212 212
251 237 129 213 265 310 285 255 249 250 242 237 266 261 117 100 80 71 69 59 56 56 48 39 49 63 72 83 120 154 165 158 136 113 129 161 169 169 168 167 165 161 157 158 161 166 171 176 178 179 181 183 185 185 186 188 193 197 196 192 192 193 192 190 185 192 206 213 216 218 217 214 214 215 213 212 213 211 210 210 207 204 204 207 207 207
213 203 243 249 228 261 273 253 256 278 295 274 173 183 73 61 45 47 61 56 49 47 45 45 52 60 63 63 70 105 136 147 154 151 145 162 175 173 169 170 170 167 165 163 163 167 172 175 178 179 182 186 188 189 190 191 196 204 206 204 203 199 197 200 200 197 204 211 214 215 215 214 214 213 211 210 211 209 209 210 208 204 204 205 205 203
185 146 258 246 233 246 245 214 187 222 351 355 320 137 66 44 26 23 45 55 47 40 40 44 47 49 50 50 56 78 95 104 125 138 134 149 176 181 179 177 174 173 172 168 168 172 174 175 178 180 183 188 190 191 193 194 196 202 203 205 208 205 200 201 202 200 205 211 214 217 218 216 214 212 211 210 208 206 207 211 211 208 209 212 211 206
315 232 254 252 265 274 264 260 107 132 145 177 357 63 47 28 13 15 38 50 41 29 33 43 44 43 42 38 41 58 74 79 91 114 127 140 168 183 186 184 180 178 177 175 175 178 178 176 178 180 184 189 191 191 192 192 194 197 198 200 202 199 193 195 197 197 201 208 214 219 219 215 212 210 210 210 207 206 211 216 215 212 214 217 216 208
261 231 256 263 258 251 279 4 6 354 187 190 55 60 56 31 10 27 42 46 36 17 15 39 47 45 43 40 36 41 51 58 66 86 111 127 146 165 174 179 181 180 181 180 179 181 183 180 178 180 185 190 192 193 193 191 191 193 196 199 199 195 196 201 197 188 194 208 215 218 216 212 210 210 211 212 210 210 213 218 217 214 211 212 212 209
296 359 275 273 281 308 4 37 10 280 269 249 177 107 91 77 52 51 50 44 34 18 16 42 51 47 47 47 40 37 40 42 48 61 79 96 110 125 148 168 177 180 183 184 180 181 184 182 180 184 190 194 195 195 195 193 192 193 194 198 200 198 195 197 195 192 201 213 217 216 212 210 210 212 214 215 213 212 213 216 217 214 210 212 215 215
Height
1468 1468 1465 1462 1456 1453 1450 1446 1442 1441 1439 1438 1439 1442 1444 1446 1444 1442 1444 1440 1441 1451 1453 1455 1458 1454 1460 1464 1459 1463 1470 1473 1475 1476 1477 1478 1479 1481 1483 1485 1487 1489 1492 1495 1499 1500 1502 1504 1505 1508 1510 1512 1515 1517 1519 1521 1522 1524 1525 1527 1529 1532 1533 1534 1536 1538 1539 1540 1541 1542 1544 1545 1546 1547 1548 1548 1549 1549 1549 1550 1551 1552 1553 1554 1555 1554
1463 1462 1457 1454 1451 1448 1447 1445 1444 1444 1441 1437 1438 1440 1439 1439 1439 1437 1437 1437 1441 1446 1443 1448 1457 1454 1455 1458 1455 1457 1462 1466 1470 1472 1474 1476 1477 1479 1481 1483 1486 1488 1491 1494 1497 1498 1500 1502 1503 1505 1508 1510 1512 1514 1517 1519 1520 1522 1524 1526 1528 1530 1532 1533 1535 1537 1538 1540 1541 1542 1543 1544 1545 1546 1547 1547 1548 1548 1549 1550 1551 1552 1553 1553 1553 1553
1458 1456 1451 1449 1448 1446 1445 1444 1445 1445 1441 1437 1435 1435 1434 1434 1435 1435 1432 1433 1439 1440 1437 1445 1455 1455 1452 1452 1451 1451 1452 1456 1464 1468 1470 1473 1474 1477 1479 1482 1484 1487 1489 1492 1494 1496 1498 1500 1501 1503 1506 1508 1510 1512 1515 1516 1518 1521 1523 1525 1527 1529 1531 1532 1533 1535 1538 1539 1541 1541 1542 1543 1544 1544 1545 1546 1546 1547 1548 1549 1550 1551 1552 1552 1552 1552
1452 1449 1446 1445 1445 1445 1444 1443 1444 1444 1440 1436 1432 1430 1430 1428 1430 1434 1431 1431 1432 1429 1435 1448 1453 1451 1450 1449 1446 1446 1446 1448 1457 1464 1467 1469 1471 1473 1477 1481 1483 1484 1487 1489 1492 1494 1496 1497 1498 1501 1503 1506 1508 1510 1512 1514 1517 1519 1522 1523 1526 1528 1530 1531 1532 1533 1536 1538 1539 1540 1541 1542 1542 1543 1544 1545 1546 1547 1548 1548 1549 1550 1551 1551 1551 1552
1445 1441 1442 1442 1442 1444 1445 1441 1440 1441 1438 1435 1429 1425 1427 1425 1424 1429 1429 1427 1426 1427 1436 1450 1454 1448 1446 1447 1443 1441 1444 1444 1450 1460 1463 1465 1468 1471 1475 1480 1482 1482 1483 1486 1489 1491 1494 1495 1496 1499 1501 1504 1506 1508 1509 1512 1515 1518 1520 1522 1524 1526 1528 1529 1530 1532 1534 1536 1537 1538 1539 1541 1541 1542 1544 1545 1546 1547 1547 1547 1548 1549 1550 1551 1551 1552
1440 1436 1437 1440 1440 1440 1441 1438 1434 1435 1436 1434 1426 1423 1427 1425 1421 1423 1423 1422 1430 1440 1442 1449 1460 1453 1440 1440 1439 1437 1441 1440 1443 1453 1458 1460 1463 1468 1472 1476 1479 1479 1481 1483 1486 1488 1491 1493 1495 1497 1499 1502 1504 1506 1508 1511 1514 1517 1519 1521 1524 1525 1525 1526 1528 1530 1532 1533 1535 1537 1539 1540 1541 1542 1544 1544 1545 1546 1546 1546 1548 1549 1549 1550 1551 1552
1436 1433 1432 1435 1437 1436 1437 1435 1429 1430 1436 1433 1424 1424 1427 1422 1419 1421 1420 1424 1439 1447 1441 1442 1457 1455 1440 1434 1432 1434 1438 1437 1441 1449 1453 1456 1458 1462 1468 1472 1474 1475 1477 1480 1483 1486 1488 1490 1492 1495 1497 1500 1502 1504 1507 1509 1512 1515 1517 1520 1523 1522 1522 1524 1526 1528 1530 1532 1535 1537 1538 1540 1541 1542 1543 1543 1544 1545 1545 1546 1547 1547 1549 1550 1552 1552
1432 1431 1428 1428 1431 1432 1434 1432 1425 1427 1434 1427 1419 1425 1425 1419 1421 1420 1419 1428 1437 1440 1438 1437 1445 1452 1444 1430 1427 1434 1436 1436 1441 1446 1447 1451 1454 1458 1463 1467 1469 1471 1473 1476 1479 1483 1485 1488 1490 1492 1495 1498 1501 1503 1505 1507 1510 1513 1515 1518 1520 1519 1520 1522 1524 1526 1528 1531 1534 1536 1538 1539 1541 1541 1541 1542 1544 1544 1544 1545 1546 1547 1548 1550 1551 1551
1431 1428 1425 1426 1429 1427 1426 1426 1423 1425 1428 1422 1418 1424 1423 1422 1424 1419 1421 1427 1428 1437 1443 1434 1436 1451 1446 1427 1424 1428 1430 1435 1439 1440 1443 1446 1450 1454 1458 1462 1464 1467 1470 1473 1476 1479 1482 1485 1488 1490 1493 1497 1499 1502 1504 1505 1508 1512 1514 1516 1518 1517 1518 1520 1523 1525 1527 1530 1533 1535 1536 1537 1539 1540 1540 1541 1543 1543 1544 1545 1546 1546 1548 1550 1550 1550
1428 1425 1424 1426 1426 1423 1420 1422 1423 1422 1422 1418 1417 1420 1424 1427 1424 1420 1424 1423 1426 1441 1445 1429 1428 1446 1443 1425 1423 1424 1423 1429 1432 1434 1439 1442 1445 1449 1452 1456 1460 1463 1467 1470 1473 1476 1479 1482 1486 1488 1491 1495 1498 1500 1502 1504 1507 1509 1511 1514 1515 1515 1516 1518 1521 1523 1526 1529 1531 1533 1534 1535 1538 1539 1539 1540 1541 1542 1543 1544 1545 1547 1548 1549 1549 1549
1426 1425 1426 1425 1421 1418 1415 1418 1421 1420 1421 1420 1416 1419 1427 1428 1423 1424 1423 1421 1435 1449 1440 1424 1420 1432 1438 1425 1418 1419 1415 1418 1426 1431 1434 1437 1441 1444 1447 1452 1455 1459 1463 1467 1471 1474 1477 1481 1484 1487 1489 1492 1496 1498 1500 1502 1505 1506 1508 1511 1513 1514 1515 1517 1519 1522 1524 1528 1529 1530 1532 1533 1536 1538 1538 1540 1540 1541 1543 1544 1545 1546 1547 1547 1547 1548
1428 1427 1426 1424 1421 1418 1417 1421 1422 1421 1424 1422 1417 1423 1433 1434 1432 1434 1429 1429 1446 1446 1428 1420 1415 1419 1433 1426 1411 1409 1407 1409 1419 1425 1428 1432 1436 1439 1443 1447 1451 1455 1459 1463 1468 1471 1474 1478 1482 1485 1487 1490 1493 1496 1498 1500 1502 1504 1506 1509 1510 1511 1513 1515 1518 1520 1523 1526 1528 1529 1530 1532 1535 1537 1537 1539 1540 1541 1542 1543 1544 1545 1545 1546 1546 1546
1435 1430 1425 1425 1422 1417 1418 1422 1421 1420 1422 1419 1417 1425 1435 1439 1442 1446 1441 1440 1445 1433 1417 1415 1413 1414 1424 1418 1407 1405 1403 1404 1412 1418 1421 1426 1432 1435 1439 1442 1446 1452 1456 1459 1465 1469 1471 1475 1478 1482 1484 1487 1490 1493 1496 1498 1500 1502 1504 1507 1508 1508 1511 1514 1516 1519 1522 1525 1526 1528 1530 1532 1534 1536 1537 1538 1539 1541 1542 1543 1543 1544 1544 1544 1545 1546
1443 1438 1428 1425 1421 1414 1412 1412 1414 1418 1420 1416 1414 1419 1425 1430 1444 1451 1445 1442 1440 1428 1413 1406 1410 1420 1421 1410 1404 1403 1399 1398 1406 1414 1416 1420 1427 1433 1435 1439 1443 1447 1452 1456 1461 1465 1468 1470 1475 1478 1481 1484 1487 1490 1493 1495 1498 1500 1502 1504 1505 1507 1509 1512 1515 1517 1521 1523 1525 1528 1530 1532 1534 1535 1536 1537 1538 1539 1541 1542 1543 1544 1544 1543 1544 1545
1446 1443 1429 1422 1418 1413 1409 1405 1406 1412 1417 1413 1406 1409 1412 1414 1431 1442 1437 1436 1435 1426 1415 1409 1417 1425 1419 1405 1397 1398 1397 1395 1401 1410 1413 1417 1423 1429 1432 1435 1439 1444 1449 1453 1458 1462 1464 1467 1471 1475 1478 1482 1485 1488 1491 1494 1496 1498 1500 1501 1503 1506 1508 1511 1514 1517 1520 1522 1524 1527 1529 1531 1532 1534 1535 1536 1537 1538 1540 1541 1541 1542 1543 1542 1543 1543
1441 1435 1419 1414 1414 1411 1409 1403 1401 1409 1416 1411 1403 1407 1409 1404 1412 1424 1423 1421 1423 1425 1420 1416 1418 1411 1403 1400 1394 1395 1397 1395 1403 1409 1411 1415 1418 1423 1429 1431 1435 1441 1445 1451 1456 1459 1462 1465 1468 1472 1476 1479 1482 1485 1488 1491 1494 1496 1498 1500 1502 1506 1507 1509 1513 1516 1519 1521 1523 1525 1527 1529 1530 1532 1533 1534 1536 1537 1538 1539 1540 1541 1541 1541 1541 1541
1436 1428 1412 1412 1412 1408 1408 1404 1401 1409 1412 1409 1408 1409 1403 1395 1400 1415 1423 1418 1420 1430 1422 1414 1416 1405 1399 1403 1398 1399 1400 1396 1404 1410 1409 1413 1416 1419 1424 1427 1432 1438 1442 1448 1452 1456 1459 1462 1466 1469 1473 1476 1479 1482 1485 1488 1491 1493 1496 1499 1502 1505 1506 1509 1512 1515 1517 1519 1521 1523 1525 1526 1528 1530 1531 1532 1534 1535 1536 1537 1539 1539 1540 1540 1540 1540
1426 1423 1410 1409 1411 1408 1410 1407 1403 1405 1403 1405 1412 1406 1396 1394 1396 1406 1422 1426 1428 1435 1421 1410 1417 1412 1408 1409 1401 1402 1404 1400 1405 1410 1409 1411 1413 1416 1421 1424 1430 1435 1439 1444 1448 1453 1455 1458 1463 1466 1470 1473 1476 1479 1483 1485 1488 1491 1494 1497 1500 1502 1505 1508 1510 1512 1515 1517 1519 1520 1522 1524 1525 1528 1529 1530 1532 1533 1534 1536 1537 1537 1538 1538 1538 1538
1417 1423 1414 1406 1408 1410 1411 1409 1406 1404 1399 1400 1406 1404 1400 1407 1407 1406 1418 1427 1431 1436 1423 1411 1414 1411 1406 1405 1401 1406 1408 1404 1407 1408 1407 1409 1410 1414 1418 1422 1428 1432 1437 1441 1446 1451 1453 1456 1461 1464 1467 1471 1474 1478 1481 1484 1486 1489 1492 1495 1498 1501 1503 1505 1508 1509 1512 1514 1516 1518 1520 1522 1524 1526 1528 1528 1529 1531 1533 1535 1535 1536 1536 1536 1536 1537
1415 1425 1423 1408 1403 1407 1409 1409 1409 1407 1403 1400 1402 1402 1401 1404 1405 1405 1409 1414 1423 1431 1425 1417 1418 1412 1400 1393 1397 1404 1405 1404 1406 1406 1406 1407 1409 1414 1418 1421 1426 1430 1434 1439 1443 1448 1451 1454 1458 1461 1465 1468 1471 1476 1478 1481 1484 1486 1489 1493 1496 1499 1500 1503 1505 1507 1509 1511 1514 1516 1518 1520 1522 1524 1526 1526 1528 1530 1532 1533 1534 1535 1535 1534 1535 1536
1415 1423 1425 1410 1402 1408 1412 1408 1405 1405 1404 1403 1402 1401 1402 1401 1399 1402 1402 1399 1408 1421 1423 1424 1423 1408 1391 1386 1390 1395 1399 1402 1402 1403 1405 1406 1408 1413 1417 1420 1424 1428 1432 1436 1441 1445 1448 1452 1456 1459 1463 1466 1470 1474 1476 1479 1482 1483 1486 1490 1493 1496 1497 1500 1503 1504 1507 1509 1512 1514 1516 1518 1521 1523 1524 1525 1528 1529 1531 1532 1533 1533 1533 1533 1534 1535
1416 1422 1425 1415 1409 1412 1410 1403 1400 1400 1399 1399 1398 1397 1399 1398 1398 1407 1409 1397 1397 1406 1411 1420 1423 1403 1383 1382 1385 1387 1394 1398 1398 1400 1403 1404 1406 1411 1415 1419 1423 1426 1431 1434 1438 1443 1446 1450 1454 1457 1461 1465 1467 1471 1473 1476 1479 1481 1483 1487 1491 1494 1495 1497 1500 1502 1505 1507 1510 1512 1514 1517 1519 1521 1522 1524 1527 1528 1530 1531 1531 1531 1532 1532 1533 1534
1415 1420 1423 1416 1410 1407 1404 1401 1401 1399 1397 1397 1395 1390 1391 1393 1396 1407 1414 1405 1400 1398 1394 1403 1415 1402 1383 1380 1384 1386 1391 1395 1396 1399 1401 1403 1405 1408 1412 1417 1421 1425 1430 1433 1436 1440 1444 1448 1451 1455 1459 1462 1465 1468 1471 1474 1476 1478 1481 1484 1489 1491 1492 1495 1498 1500 1503 1505 1508 1511 1513 1515 1517 1519 1521 1523 1525 1527 1528 1529 1529 1530 1531 1531 1532 1534
1417 1421 1420 1413 1406 1401 1399 1400 1400 1398 1398 1402 1399 1389 1388 1391 1393 1397 1400 1401 1404 1401 1393 1401 1412 1404 1390 1386 1387 1389 1391 1393 1395 1398 1400 1402 1404 1407 1410 1414 1418 1424 1429 1432 1435 1439 1442 1446 1449 1453 1457 1459 1463 1466 1468 1471 1473 1476 1479 1482 1486 1489 1491 1493 1496 1499 1501 1503 1506 1509 1511 1513 1515 1517 1520 1522 1524 1525 1527 1528 1528 1529 1530 1530 1532 1533
1418 1419 1417 1413 1411 1410 1408 1408 1408 1403 1399 1401 1400 1394 1389 1388 1391 1395 1394 1396 1405 1402 1396 1403 1410 1402 1394 1392 1391 1391 1393 1393 1394 1397 1401 1404 1405 1406 1408 1412 1418 1424 1428 1431 1434 1437 1440 1444 1447 1451 1454 1457 1460 1463 1466 1469 1471 1474 1477 1480 1484 1487 1489 1491 1494 1497 1498 1501 1504 1506 1509 1511 1513 1516 1519 1520 1522 1524 1525 1526 1527 1528 1529 1530 1531 1533
1416 1416 1415 1414 1415 1418 1418 1414 1411 1405 1401 1399 1397 1396 1394 1390 1393 1398 1398 1401 1406 1402 1396 1400 1403 1398 1395 1395 1394 1394 1395 1394 1396 1399 1403 1406 1408 1409 1411 1415 1420 1423 1427 1430 1432 1435 1438 1442 1445 1449 1452 1455 1457 1460 1463 1466 1469 1472 1475 1478 1482 1485 1487 1489 1492 1494 1496 1499 1501 1503 1506 1509 1512 1515 1517 1518 1521 1522 1524 1525 1526 1527 1528 1529 1531 1532
1416 1415 1415 1412 1407 1405 1405 1402 1398 1398 1401 1401 1397 1396 1396 1394 1392 1394 1400 1403 1401 1400 1401 1398 1394 1396 1399 1397 1396 1396 1396 1397 1399 1401 1404 1406 1410 1412 1413 1417 1421 1423 1426 1429 1431 1433 1436 1439 1443 1446 1449 1453 1456 1458 1461 1464 1467 1470 1473 1477 1480 1483 1485 1488 1489 1492 1494 1496 1499 1501 1504 1507 1510 1513 1515 1517 1519 1521 1523 1524 1525 1526 1527 1529 1530 1531
1417 1417 1416 1413 1407 1398 1393 1392 1392 1395 1399 1397 1395 1395 1396 1396 1394 1394 1399 1400 1396 1402 1408 1399 1392 1397 1397 1394 1396 1396 1396 1399 1401 1402 1404 1407 1410 1413 1413 1416 1421 1423 1424 1426 1429 1431 1433 1437 1441 1444 1447 1451 1454 1456 1459 1463 1465 1468 1471 1475 1478 1481 1483 1486 1488 1489 1491 1494 1497 1499 1503 1506 1509 1511 1513 1515 1517 1519 1522 1523 1524 1525 1527 1528 1529 1530
1419 1417 1413 1412 1410 1401 1391 1386 1385 1391 1395 1393 1393 1394 1394 1395 1396 1396 1399 1397 1395 1402 1405 1397 1395 1400 1396 1391 1395 1397 1396 1398 1401 1403 1406 1407 1409 1412 1413 1415 1419 1421 1421 1423 1426 1428 1431 1435 1438 1442 1445 1448 1452 1454 1457 1461 1464 1466 1470 1473 1476 1479 1481 1483 1486 1488 1489 1492 1495 1498 1501 1504 1507 1509 1511 1514 1516 1518 1520 1522 1523 1524 1526 1527 1528 1530
1419 1416 1410 1409 1410 1403 1393 1386 1384 1388 1392 1391 1391 1390 1390 1391 1393 1397 1400 1397 1395 1399 1399 1396 1397 1398 1395 1393 1394 1397 1400 1401 1403 1405 1406 1407 1408 1411 1412 1414 1417 1419 1419 1420 1423 1425 1429 1433 1436 1440 1443 1446 1449 1452 1455 1459 1461 1464 1468 1471 1474 1477 1479 1482 1484 1486 1487 1490 1493 1496 1500 1502 1505 1507 1510 1512 1515 1516 1519 1521 1522 1523 1525 1526 1527 1528
1419 1417 1410 1407 1410 1407 1397 1390 1389 1389 1389 1389 1390 1389 1389 1393 1395 1398 1401 1399 1399 1402 1402 1402 1402 1397 1393 1393 1394 1396 1401 1402 1403 1404 1405 1406 1407 1409 1411 1413 1414 1416 1417 1418 1421 1424 1427 1431 1435 1438 1441 1444 1447 1451 1454 1456 1459 1462 1465 1469 1472 1474 1477 1480 1481 1483 1486 1489 1491 1495 1498 1500 1503 1506 1508 1511 1513 1515 1518 1520 1521 1522 1523 1524 1526 1527
1418 1419 1413 1410 1415 1411 1400 1396 1396 1391 1389 1391 1390 1387 1388 1392 1395 1397 1399 1400 1402 1406 1407 1408 1407 1400 1394 1393 1395 1396 1397 1399 1401 1402 1403 1404 1406 1407 1409 1411 1412 1414 1415 1417 1420 1423 1426 1429 1432 1435 1438 1442 1445 1449 1452 1454 1457 1460 1463 1467 1470 1472 1475 1477 1479 1481 1484 1487 1490 1493 1496 1499 1501 1504 1507 1509 1511 1513 1516 1519 1520 1521 1522 1523 1524 1526
1416 1420 1417 1414 1417 1413 1403 1401 1399 1398 1403 1402 1392 1385 1385 1387 1390 1392 1394 1396 1398 1401 1405 1407 1405 1399 1395 1395 1396 1396 1396 1397 1397 1399 1401 1402 1404 1406 1407 1409 1411 1412 1414 1417 1419 1422 1425 1427 1430 1433 1437 1440 1444 1447 1450 1452 1455 1458 1461 1465 1468 1470 1472 1474 1476 1479 1482 1485 1488 1491 1494 1497 1500 1503 1505 1508 1509 1511 1514 1517 1518 1518 1520 1521 1522 1524
1416 1418 1417 1414 1417 1415 1408 1402 1402 1408 1412 1401 1384 1381 1384 1385 1387 1391 1392 1393 1395 1397 1399 1400 1398 1396 1396 1396 1396 1397 1396 1395 1396 1398 1401 1402 1404 1405 1406 1408 1410 1410 1412 1414 1417 1420 1424 1426 1429 1433 1435 1439 1443 1446 1450 1452 1454 1456 1459 1463 1466 1468 1471 1473 1475 1478 1481 1484 1487 1490 1493 1495 1498 1501 1504 1505 1507 1509 1512 1515 1516 1517 1518 1519 1520 1522
1417 1418 1417 1415 1416 1414 1407 1406 1413 1416 1404 1386 1377 1378 1381 1382 1384 1387 1389 1390 1392 1394 1396 1396 1396 1395 1395 1395 1395 1395 1395 1394 1396 1400 1401 1402 1405 1405 1405 1406 1407 1408 1409 1412 1415 1418 1421 1424 1428 1431 1434 1437 1441 1444 1448 1450 1452 1455 1458 1461 1463 1466 1469 1472 1474 1477 1481 1484 1486 1487 1491 1494 1496 1499 1501 1503 1505 1507 1509 1512 1513 1514 1516 1517 1518 1520
1416 1417 1416 1415 1414 1412 1409 1410 1413 1407 1392 1382 1381 1379 1379 1382 1384 1388 1392 1391 1389 1391 1393 1394 1394 1393 1394 1395 1395 1394 1393 1394 1397 1400 1400 1401 1403 1403 1403 1403 1404 1406 1408 1411 1414 1417 1420 1423 1426 1429 1433 1436 1439 1443 1446 1448 1451 1454 1457 1459 1461 1464 1467 1470 1474 1476 1479 1482 1483 1485 1489 1492 1494 1497 1499 1501 1503 1505 1507 1509 1510 1512 1514 1515 1517 1519
1413 1415 1416 1416 1415 1412 1410 1405 1400 1397 1393 1389 1386 1382 1380 1382 1383 1387 1393 1392 1386 1387 1390 1390 1391 1392 1392 1394 1393 1392 1393 1396 1398 1397 1396 1398 1400 1400 1401 1402 1403 1405 1408 1410 1414 1416 1419 1423 1425 1428 1432 1435 1438 1442 1444 1447 1450 1453 1456 1458 1460 1462 1465 1468 1471 1475 1477 1479 1481 1484 1487 1490 1493 1495 1497 1499 1501 1503 1505 1507 1508 1510 1511 1513 1515 1518
1412 1414 1417 1421 1419 1412 1408 1404 1400 1403 1403 1394 1387 1384 1382 1382 1381 1382 1390 1390 1384 1383 1386 1386 1387 1389 1390 1392 1391 1390 1394 1399 1398 1393 1392 1396 1398 1398 1400 1402 1404 1405 1408 1410 1413 1416 1418 1421 1424 1428 1431 1434 1437 1441 1443 1446 1448 1451 1454 1456 1459 1461 1464 1467 1470 1473 1475 1477 1480 1483 1486 1488 1491 1493 1495 1497 1499 1501 1503 1505 1506 1508 1509 1511 1513 1516
1414 1413 1415 1422 1422 1414 1410 1410 1408 1408 1404 1395 1388 1385 1385 1386 1383 1384 1393 1393 1382 1379 1382 1383 1384 1386 1388 1389 1388 1389 1396 1399 1394 1390 1392 1395 1396 1397 1399 1401 1403 1406 1408 1411 1413 1415 1417 1419 1423 1427 1430 1433 1436 1439 1442 1444 1447 1449 1451 1454 1457 1459 1462 1465 1469 1471 1473 1475 1478 1481 1484 1486 1488 1491 1493 1495 1497 1499 1501 1503 1504 1506 1508 1509 1511 1513
1416 1417 1419 1423 1421 1413 1408 1412 1414 1408 1401 1395 1391 1387 1386 1386 1385 1391 1402 1396 1382 1379 1381 1380 1381 1384 1385 1386 1386 1388 1394 1395 1391 1391 1394 1395 1395 1396 1398 1400 1402 1405 1408 1412 1414 1416 1417 1419 1422 1425 1428 1432 1435 1438 1441 1443 1445 1447 1449 1451 1454 1456 1459 1463 1466 1468 1471 1474 1477 1480 1482 1484 1486 1489 1491 1493 1495 1497 1499 1500 1502 1504 1506 1508 1510 1512
1418 1421 1425 1423 1419 1413 1409 1413 1417 1409 1399 1396 1393 1386 1386 1387 1389 1397 1402 1394 1386 1384 1383 1380 1381 1382 1382 1383 1385 1387 1389 1390 1391 1393 1395 1395 1395 1396 1397 1399 1402 1405 1409 1412 1414 1416 1418 1419 1422 1424 1428 1431 1434 1437 1440 1442 1444 1446 1448 1450 1452 1455 1458 1462 1465 1469 1471 1473 1475 1477 1480 1482 1485 1487 1489 1491 1494 1496 1497 1499 1501 1503 1505 1507 1509 1510
1419 1424 1427 1420 1414 1413 1410 1416 1422 1412 1397 1396 1394 1386 1386 1392 1394 1396 1395 1392 1389 1388 1386 1384 1383 1381 1382 1383 1384 1386 1387 1389 1392 1394 1394 1394 1395 1395 1397 1400 1403 1406 1409 1411 1414 1416 1418 1420 1422 1425 1428 1431 1433 1436 1439 1442 1444 1445 1447 1449 1451 1454 1458 1461 1465 1468 1469 1470 1472 1475 1478 1481 1483 1485 1488 1490 1492 1494 1496 1498 1499 1501 1503 1506 1507 1508
1416 1423 1424 1413 1406 1407 1408 1416 1427 1418 1398 1395 1397 1392 1389 1392 1394 1393 1392 1392 1391 1388 1388 1387 1384 1383 1385 1385 1385 1387 1387 1389 1391 1392 1392 1393 1394 1394 1397 1400 1403 1406 1408 1410 1413 1416 1418 1421 1423 1425 1427 1430 1433 1436 1438 1440 1443 1444 1446 1448 1451 1455 1458 1460 1463 1465 1466 1468 1470 1473 1476 1479 1481 1484 1486 1488 1490 1492 1494 1496 1497 1499 1502 1504 1505 1506
1410 1414 1416 1410 1406 1408 1410 1414 1416 1408 1397 1396 1399 1396 1393 1394 1395 1393 1392 1391 1391 1391 1390 1389 1387 1386 1386 1385 1385 1387 1387 1388 1389 1390 1391 1392 1393 1395 1397 1399 1402 1404 1405 1407 1412 1415 1419 1422 1424 1426 1428 1429 1432 1435 1437 1439 1442 1444 1446 1448 1451 1454 1456 1458 1461 1463 1464 1466 1469 1471 1474 1477 1479 1482 1484 1486 1488 1490 1492 1494 1495 1497 1500 1502 1503 1505
1406 1404 1409 1411 1409 1409 1412 1411 1405 1398 1397 1398 1398 1396 1395 1396 1396 1394 1393 1392 1391 1392 1392 1390 1389 1387 1386 1386 1386 1386 1387 1388 1389 1390 1391 1393 1394 1396 1397 1399 1401 1401 1402 1405 1409 1412 1417 1421 1424 1426 1428 1429 1431 1434 1436 1438 1441 1443 1445 1448 1451 1453 1454 1457 1460 1461 1462 1464 1467 1469 1472 1475 1477 1479 1482 1484 1486 1488 1490 1492 1493 1495 1498 1500 1502 1504
1404 1402 1406 1409 1406 1405 1406 1403 1398 1395 1396 1398 1398 1398 1398 1397 1396 1395 1395 1393 1391 1392 1392 1391 1389 1388 1387 1388 1387 1387 1388 1389 1390 1391 1393 1393 1395 1396 1398 1400 1401 1401 1402 1404 1407 1411 1416 1420 1423 1426 1428 1430 1432 1434 1435 1438 1439 1441 1444 1448 1450 1452 1453 1455 1458 1459 1460 1462 1464 1467 1470 1473 1475 1477 1480 1483 1485 1487 1488 1489 1491 1494 1496 1498 1500 1502
1400 1402 1404 1404 1405 1408 1406 1399 1396 1396 1396 1397 1398 1398 1398 1398 1398 1397 1395 1394 1392 1393 1393 1391 1390 1390 1390 1389 1389 1389 1389 1390 1391 1393 1394 1394 1396 1397 1398 1401 1402 1403 1403 1404 1406 1411 1415 1419 1422 1425 1427 1430 1432 1433 1435 1437 1438 1440 1443 1446 1448 1450 1451 1453 1455 1457 1458 1460 1463 1465 1468 1471 1473 1476 1478 1481 1483 1485 1486 1488 1490 1492 1494 1495 1497 1499
1398 1403 1404 1401 1400 1402 1400 1397 1396 1398 1398 1398 1398 1397 1398 1399 1399 1398 1397 1395 1394 1395 1394 1393 1392 1392 1391 1391 1391 1390 1391 1392 1393 1394 1395 1396 1397 1398 1400 1401 1402 1404 1405 1406 1408 1411 1414 1417 1420 1423 1426 1429 1431 1433 1435 1436 1438 1440 1442 1444 1446 1448 1450 1451 1453 1455 1456 1458 1461 1463 1466 1469 1471 1474 1477 1479 1481 1483 1484 1485 1488 1490 1491 1492 1494 1496
1402 1405 1402 1398 1399 1401 1398 1397 1397 1398 1399 1400 1399 1398 1398 1400 1401 1401 1399 1397 1396 1397 1397 1395 1394 1393 1393 1393 1392 1392 1393 1394 1394 1395 1397 1398 1399 1400 1401 1402 1403 1405 1407 1408 1410 1413 1415 1417 1419 1422 1425 1428 1430 1432 1434 1435 1437 1439 1440 1442 1445 1446 1447 1449 1451 1453 1455 1457 1459 1461 1463 1466 1469 1472 1474 1477 1479 1481 1482 1484 1486 1488 1490 1491 1493 1495
1404 1405 1402 1398 1400 1403 1403 1403 1402 1403 1403 1402 1399 1399 1400 1401 1403 1402 1400 1398 1399 1399 1399 1398 1397 1396 1395 1395 1394 1394 1395 1395 1396 1397 1398 1399 1400 1402 1402 1403 1405 1407 1408 1410 1412 1414 1416 1418 1419 1421 1424 1427 1429 1431 1433 1434 1436 1437 1438 1440 1443 1444 1445 1447 1449 1452 1453 1454 1456 1459 1461 1464 1467 1470 1472 1475 1477 1479 1481 1483 1485 1487 1489 1490 1491 1493
1404 1405 1405 1403 1401 1401 1403 1405 1405 1405 1405 1403 1401 1401 1401 1402 1404 1403 1401 1401 1402 1402 1402 1400 1399 1398 1398 1398 1398 1397 1397 1397 1398 1398 1398 1399 1401 1401 1403 1404 1406 1408 1410 1411 1412 1414 1416 1418 1419 1420 1423 1426 1429 1431 1432 1433 1435 1436 1437 1438 1440 1443 1444 1445 1447 1450 1451 1452 1455 1457 1460 1463 1465 1468 1471 1473 1476 1478 1479 1480 1483 1485 1487 1488 1489 1490